FW0153 Weather Reports


Display with metric or nautical units.
time (UTC)temp
F
wind
direction
speed
MPH
gust
MPH
rain 1hr
in
rain 24hr
in
rain mn
in
humidity
%
barometer
mb
20260507164005 74 288 9.0 0.0 0.00 0.00 0.00 85 1015.0
20260507163505 74 78 0.0 0.0 0.00 0.00 0.00 86 1015.0
20260507163212 73 32 13.0 0.0 0.00 0.00 0.00 86 1015.0
20260507162505 73 294 9.0 0.0 0.00 0.00 0.00 86 1015.0
20260507162004 73 9 18.0 0.0 0.00 0.00 0.00 86 1015.4
20260507161505 73 66 9.0 0.0 0.00 0.00 0.00 86 1015.0
20260507161212 73 325 9.0 0.0 0.00 0.00 0.00 87 1015.0
20260507160505 72 8 4.0 0.0 0.00 0.00 0.00 88 1015.0
20260507160005 72 25 9.0 0.0 0.00 0.00 0.00 88 1015.0
20260507155713 72 329 18.0 0.0 0.00 0.00 0.00 88 1015.0
20260507155212 72 56 0.0 0.0 0.00 0.00 0.00 88 1015.0
20260507154505 73 26 4.0 0.0 0.00 0.00 0.00 88 1014.7
20260507154006 72 328 18.0 0.0 0.00 0.00 0.00 88 1014.7
20260507153505 72 348 23.0 0.0 0.00 0.00 0.00 88 1014.7
20260507153213 72 337 13.0 0.0 0.00 0.00 0.00 88 1015.0
20260507152504 72 26 13.0 0.0 0.00 0.00 0.00 88 1014.7
20260507152005 72 334 4.0 0.0 0.00 0.00 0.00 89 1014.7
20260507151505 72 114 0.0 0.0 0.00 0.00 0.00 89 1014.7
20260507151005 72 161 4.0 0.0 0.00 0.00 0.00 89 1014.4
20260507150505 72 335 4.0 0.0 0.00 0.00 0.00 90 1014.7
20260507150006 72 307 4.0 0.0 0.00 0.00 0.00 90 1014.4
20260507145505 72 309 13.0 0.0 0.00 0.00 0.00 90 1014.7
20260507145005 73 331 9.0 0.0 0.00 0.00 0.00 90 1014.4
20260507144505 73 346 4.0 0.0 0.00 0.00 0.00 90 1014.4
20260507144005 73 25 23.0 0.0 0.00 0.00 0.00 90 1014.4
20260507143504 73 68 4.0 0.0 0.00 0.00 0.00 90 1014.4
20260507143005 73 314 9.0 0.0 0.00 0.00 0.00 90 1014.4
20260507142505 73 56 9.0 0.0 0.00 0.00 0.00 90 1014.0
20260507142005 73 45 9.0 0.0 0.00 0.00 0.00 90 1014.0
20260507141505 73 5 4.0 0.0 0.00 0.00 0.00 91 1014.0
20260507141007 73 328 4.0 0.0 0.00 0.00 0.00 91 1014.0
20260507140505 73 29 9.0 0.0 0.00 0.00 0.00 91 1014.0
20260507140005 73 349 13.0 0.0 0.00 0.00 0.00 91 1013.7
20260507135505 73 333 27.0 0.0 0.00 0.00 0.00 90 1013.7
20260507135005 73 11 9.0 0.0 0.00 0.00 0.00 90 1013.7
20260507134505 73 73 9.0 0.0 0.00 0.00 0.00 90 1013.7
20260507134005 73 21 13.0 0.0 0.00 0.00 0.00 90 1013.3
20260507133505 73 17 18.0 0.0 0.00 0.00 0.00 90 1013.3
20260507133005 73 21 9.0 0.0 0.00 0.00 0.00 90 1013.3
20260507132505 74 357 23.0 0.0 0.00 0.00 0.00 90 1013.3
20260507132005 74 50 13.0 0.0 0.00 0.00 0.00 90 1013.0
20260507131505 74 32 4.0 0.0 0.00 0.00 0.00 89 1013.0
20260507131213 74 334 9.0 0.0 0.00 0.00 0.00 89 1013.0
20260507130505 74 10 13.0 0.0 0.00 0.00 0.00 88 1013.0
20260507125505 77 34 9.0 0.0 0.00 0.00 0.00 89 1012.3
20260507125005 77 149 4.0 0.0 0.00 0.00 0.00 90 1012.3
20260507124505 77 312 4.0 0.0 0.00 0.00 0.00 90 1012.3
20260507124005 77 43 4.0 0.0 0.00 0.00 0.00 90 1012.3
20260507123505 77 89 0.0 0.0 0.00 0.00 0.00 90 1012.3
20260507123212 77 53 4.0 0.0 0.00 0.00 0.00 90 1012.3
20260507122713 77 6 4.0 0.0 0.00 0.00 0.00 90 1012.3
20260507122005 77 83 0.0 0.0 0.00 0.00 0.00 90 1012.0
20260507121505 77 53 4.0 0.0 0.00 0.00 0.00 90 1012.3
20260507121006 77 89 0.0 0.0 0.00 0.00 0.00 90 1012.3
20260507120505 77 90 0.0 0.0 0.00 0.00 0.00 90 1012.3
20260507120006 77 14 4.0 0.0 0.00 0.00 0.00 90 1012.0
20260507115504 77 54 0.0 0.0 0.00 0.00 0.00 90 1011.6
20260507115005 77 55 4.0 0.0 0.00 0.00 0.00 90 1011.6
20260507114505 77 96 0.0 0.0 0.00 0.00 0.00 90 1011.6
20260507114005 77 56 4.0 0.0 0.00 0.00 0.00 90 1011.6
20260507113711 77 92 0.0 0.0 0.00 0.00 0.00 90 1011.6
20260507113005 77 79 4.0 0.0 0.00 0.00 0.00 90 1011.6
20260507112711 77 68 0.0 0.0 0.00 0.00 0.00 90 1011.6
20260507112005 77 54 4.0 0.0 0.00 0.00 0.00 90 1011.6
20260507111506 77 59 4.0 0.0 0.00 0.00 0.00 90 1011.3
20260507111005 77 67 0.0 0.0 0.00 0.00 0.00 90 1011.3
20260507110505 77 68 0.0 0.0 0.00 0.00 0.00 90 1011.3
20260507110212 77 73 0.0 0.0 0.00 0.00 0.00 90 1011.6
20260507105504 77 32 4.0 0.0 0.00 0.00 0.00 90 1011.3
20260507105005 77 25 4.0 0.0 0.00 0.00 0.00 90 1010.6
20260507104505 77 79 0.0 0.0 0.00 0.00 0.00 90 1010.6
20260507104005 77 86 0.0 0.0 0.00 0.00 0.00 90 1011.0
20260507103505 77 77 0.0 0.0 0.00 0.00 0.00 90 1011.3
20260507103005 77 85 0.0 0.0 0.00 0.00 0.00 90 1011.3
20260507102505 77 88 0.0 0.0 0.00 0.00 0.00 90 1011.6
20260507102007 77 7 4.0 0.0 0.00 0.00 0.00 90 1011.6
20260507101507 77 127 0.0 0.0 0.00 0.00 0.00 90 1011.6
20260507101004 77 85 0.0 0.0 0.00 0.00 0.00 90 1011.3
20260507100713 77 107 0.0 0.0 0.00 0.00 0.00 90 1011.6
20260507100005 77 93 0.0 0.0 0.00 0.00 0.00 90 1011.3
20260507095504 77 110 0.0 0.0 0.00 0.00 0.00 90 1010.6
20260507095005 77 95 0.0 0.0 0.00 0.00 0.00 90 1010.6
20260507094505 77 86 0.0 0.0 0.00 0.00 0.00 90 1011.0
20260507094005 77 289 4.0 0.0 0.00 0.00 0.00 90 1011.3
20260507093505 77 292 4.0 0.0 0.00 0.00 0.00 90 1011.0
20260507093005 77 98 0.0 0.0 0.00 0.00 0.00 90 1010.3
20260507092505 77 66 0.0 0.0 0.00 0.00 0.00 89 1010.6
20260507092005 77 68 0.0 0.0 0.00 0.00 0.00 89 1010.6
20260507091505 77 85 4.0 0.0 0.00 0.00 0.00 89 1011.0
20260507091004 77 64 0.0 0.0 0.00 0.00 0.00 89 1011.0
20260507090505 77 87 4.0 0.0 0.00 0.00 0.00 89 1011.0
20260507090006 77 94 0.0 0.0 0.00 0.00 0.00 88 1011.3
20260507085505 77 29 9.0 0.0 0.00 0.00 0.00 88 1011.3
20260507085211 77 87 4.0 0.0 0.00 0.00 0.00 88 1011.3
20260507084505 77 59 0.0 0.0 0.00 0.00 0.00 88 1011.3
20260507084213 78 50 0.0 0.0 0.00 0.00 0.00 88 1011.6
20260507083505 78 13 4.0 0.0 0.00 0.00 0.00 88 1011.6
20260507083005 78 56 0.0 0.0 0.00 0.00 0.00 87 1011.6
20260507082505 78 44 4.0 0.0 0.00 0.00 0.00 87 1011.6
20260507082005 78 61 4.0 0.0 0.00 0.00 0.00 87 1011.6
20260507081505 78 84 0.0 0.0 0.00 0.00 0.00 87 1011.6
20260507081005 78 79 0.0 0.0 0.00 0.00 0.00 87 1012.0
20260507080505 78 91 0.0 0.0 0.00 0.00 0.00 87 1012.0
20260507080005 78 89 0.0 0.0 0.00 0.00 0.00 87 1012.0
20260507075504 78 77 0.0 0.0 0.00 0.00 0.00 87 1011.6
20260507075005 78 85 0.0 0.0 0.00 0.00 0.00 87 1012.0
20260507074505 78 80 0.0 0.0 0.00 0.00 0.00 87 1012.0
20260507074005 78 72 0.0 0.0 0.00 0.00 0.00 87 1012.0
20260507073505 78 52 4.0 0.0 0.00 0.00 0.00 87 1012.0
20260507073005 78 96 0.0 0.0 0.00 0.00 0.00 87 1012.0
20260507072505 78 96 4.0 0.0 0.00 0.00 0.00 87 1012.0
20260507072006 78 65 0.0 0.0 0.00 0.00 0.00 87 1011.6
20260507071505 77 98 0.0 0.0 0.00 0.00 0.00 87 1011.6
20260507071005 78 101 0.0 0.0 0.00 0.00 0.00 87 1011.6
20260507070505 78 98 0.0 0.0 0.00 0.00 0.00 87 1011.6
20260507070009 78 46 4.0 0.0 0.00 0.00 0.00 87 1012.0
20260507065505 78 83 0.0 0.0 0.00 0.00 0.00 86 1011.6
20260507065005 78 60 4.0 0.0 0.00 0.00 0.00 86 1012.0
20260507064505 78 69 0.0 0.0 0.00 0.00 0.00 86 1012.0
20260507064005 78 84 0.0 0.0 0.00 0.00 0.00 86 1012.0
20260507063505 78 69 4.0 0.0 0.00 0.00 0.00 86 1012.0
20260507063212 78 83 0.0 0.0 0.00 0.00 0.00 85 1012.0
20260507062506 78 84 4.0 0.0 0.00 0.00 0.00 85 1012.0
20260507062004 78 83 0.0 0.0 0.00 0.00 0.00 85 1011.6
20260507061505 78 69 0.0 0.0 0.00 0.00 0.00 85 1012.0
20260507061005 78 69 0.0 0.0 0.00 0.00 0.00 85 1012.0
20260507060505 78 62 4.0 0.0 0.00 0.00 0.00 85 1012.0
20260507060005 78 74 0.0 0.0 0.00 0.00 0.00 85 1012.0
20260507055713 78 74 0.0 0.0 0.00 0.00 0.00 85 1012.3
20260507055005 78 77 0.0 0.0 0.00 0.00 0.00 85 1012.3
20260507054505 78 75 0.0 0.0 0.00 0.00 0.00 85 1012.0
20260507054005 78 72 4.0 0.0 0.00 0.00 0.00 85 1012.0
20260507053505 78 73 0.0 0.0 0.00 0.00 0.00 85 1012.3
20260507053005 78 76 0.0 0.0 0.00 0.00 0.00 85 1012.0
20260507052505 78 95 0.0 0.0 0.00 0.00 0.00 85 1012.0
20260507052005 78 44 0.0 0.0 0.00 0.00 0.00 85 1012.3
20260507051505 78 79 0.0 0.0 0.00 0.00 0.00 85 1012.0
20260507050505 78 94 0.0 0.0 0.00 0.00 0.00 86 1012.0
20260507045713 78 71 0.0 0.0 0.00 0.00 0.00 86 1012.0
20260507045212 78 67 0.0 0.0 0.00 0.00 0.00 86 1012.0
20260507044505 78 14 9.0 0.0 0.00 0.00 0.00 86 1012.0
20260507044005 78 87 0.0 0.0 0.00 0.00 0.00 86 1012.0
20260507043505 78 56 9.0 0.0 0.00 0.00 0.00 86 1012.0
20260507043005 78 94 0.0 0.0 0.00 0.00 0.00 86 1011.6
20260507042505 78 83 0.0 0.0 0.00 0.00 0.00 85 1012.0
20260507042005 78 72 4.0 0.0 0.00 0.00 0.00 85 1012.0
20260507041504 78 46 0.0 0.0 0.00 0.00 0.00 85 1011.6
20260507041005 78 350 13.0 0.0 0.00 0.00 0.00 85 1011.3
20260507040505 78 63 4.0 0.0 0.00 0.00 0.00 86 1011.3
20260507040005 78 69 4.0 0.0 0.00 0.00 0.00 86 1011.3
20260507035505 78 77 9.0 0.0 0.00 0.00 0.00 85 1011.3
20260507035005 78 50 0.0 0.0 0.00 0.00 0.00 85 1011.3
20260507034713 78 74 4.0 0.0 0.00 0.00 0.00 85 1011.3
20260507034005 78 71 0.0 0.0 0.00 0.00 0.00 84 1011.0
20260507033505 78 76 0.0 0.0 0.00 0.00 0.00 84 1011.3
20260507033005 78 81 4.0 0.0 0.00 0.00 0.00 84 1011.0
20260507032505 78 73 0.0 0.0 0.00 0.00 0.00 84 1011.0
20260507032005 79 27 4.0 0.0 0.00 0.00 0.00 83 1011.0
20260507031712 79 59 4.0 0.0 0.00 0.00 0.00 83 1011.0
20260507031005 79 81 4.0 0.0 0.00 0.00 0.00 82 1011.0
20260507030505 80 57 9.0 0.0 0.00 0.00 0.00 82 1010.6
20260507030005 80 76 4.0 0.0 0.00 0.00 0.00 81 1010.6
20260507025505 80 26 18.0 0.0 0.00 0.00 0.00 81 1010.3
20260507025005 80 61 0.0 0.0 0.00 0.00 0.00 80 1010.3
20260507024712 80 84 0.0 0.0 0.00 0.00 0.00 80 1009.9
20260507024213 80 54 4.0 0.0 0.00 0.00 0.00 79 1009.9
20260507023505 80 36 4.0 0.0 0.00 0.00 0.00 79 1009.9
20260507023005 80 78 4.0 0.0 0.00 0.00 0.00 78 1009.9
20260507022505 80 44 4.0 0.0 0.00 0.00 0.00 78 1009.6
20260507022212 81 79 0.0 0.0 0.00 0.00 0.00 77 1009.6
20260507021505 81 48 9.0 0.0 0.00 0.00 0.00 77 1009.6
20260507021004 81 84 4.0 0.0 0.00 0.00 0.00 76 1009.3
20260507020505 81 109 4.0 0.0 0.00 0.00 0.00 76 1009.3
20260507020005 82 65 9.0 0.0 0.00 0.00 0.00 75 1009.3
20260507015505 82 91 4.0 0.0 0.00 0.00 0.00 75 1008.9
20260507015005 82 66 4.0 0.0 0.00 0.00 0.00 74 1008.9
20260507014505 82 65 4.0 0.0 0.00 0.00 0.00 74 1008.9
20260507014212 82 39 4.0 0.0 0.00 0.00 0.00 74 1008.6
20260507013505 82 78 0.0 0.0 0.00 0.00 0.00 74 1008.6
20260507013005 83 48 13.0 0.0 0.00 0.00 0.00 73 1008.6
20260507012713 83 56 9.0 0.0 0.00 0.00 0.00 73 1008.2
20260507012005 83 70 13.0 0.0 0.00 0.00 0.00 73 1008.2
20260507011505 83 42 9.0 0.0 0.00 0.00 0.00 72 1008.2
20260507010505 83 35 18.0 0.0 0.00 0.00 0.00 72 1007.9
20260507010005 83 359 13.0 0.0 0.00 0.00 0.00 71 1007.9
20260507005505 83 20 4.0 0.0 0.00 0.00 0.00 71 1007.2
20260507005212 83 61 9.0 0.0 0.00 0.00 0.00 71 1007.6
20260507004711 84 326 13.0 0.0 0.00 0.00 0.00 71 1007.6
20260507004005 84 76 4.0 0.0 0.00 0.00 0.00 71 1007.6
20260507003505 84 42 4.0 0.0 0.00 0.00 0.00 70 1007.2
20260507003212 84 4 9.0 0.0 0.00 0.00 0.00 70 1007.6
20260507002505 85 57 4.0 0.0 0.00 0.00 0.00 69 1007.2
20260507002005 85 84 9.0 0.0 0.00 0.00 0.00 69 1007.2
20260507001505 85 81 0.0 0.0 0.00 0.00 0.00 69 1006.9
20260507001005 85 47 13.0 0.0 0.00 0.00 0.00 68 1006.9
20260507000505 86 311 9.0 0.0 0.00 0.00 0.00 67 1006.9
20260507000005 86 98 13.0 0.0 0.00 0.00 0.00 66 1006.9
20260506235504 86 123 4.0 0.0 0.00 0.00 0.00 65 1006.9
20260506235212 86 32 13.0 0.0 0.00 0.00 0.00 65 1006.9
20260506234504 86 323 13.0 0.0 0.00 0.00 0.00 65 1006.5
20260506234005 88 53 9.0 0.0 0.00 0.00 0.00 62 1006.2
20260506233505 89 44 4.0 0.0 0.00 0.00 0.00 55 1006.2
20260506233005 89 73 0.0 0.0 0.00 0.00 0.00 53 1006.5
20260506232505 89 276 9.0 0.0 0.00 0.00 0.00 53 1006.2
20260506232005 89 75 0.0 0.0 0.00 0.00 0.00 54 1006.2
20260506231505 89 324 9.0 0.0 0.00 0.00 0.00 53 1005.9
20260506231005 90 51 4.0 0.0 0.00 0.00 0.00 54 1006.2
20260506230505 90 99 0.0 0.0 0.00 0.00 0.00 52 1006.2
20260506230005 90 49 9.0 0.0 0.00 0.00 0.00 51 1006.2
20260506225505 90 68 4.0 0.0 0.00 0.00 0.00 51 1005.9
20260506225005 90 106 0.0 0.0 0.00 0.00 0.00 51 1006.2
20260506224505 90 39 9.0 0.0 0.00 0.00 0.00 51 1005.9
20260506224005 90 126 0.0 0.0 0.00 0.00 0.00 50 1006.2
20260506223506 90 18 4.0 0.0 0.00 0.00 0.00 51 1006.2
20260506223005 91 69 0.0 0.0 0.00 0.00 0.00 49 1005.9
20260506222505 91 90 4.0 0.0 0.00 0.00 0.00 48 1005.9
20260506222005 91 186 4.0 0.0 0.00 0.00 0.00 49 1006.2
20260506221505 90 302 4.0 0.0 0.00 0.00 0.00 50 1005.9
20260506221213 91 221 4.0 0.0 0.00 0.00 0.00 48 1006.2
20260506220505 92 105 4.0 0.0 0.00 0.00 0.00 49 1006.2
20260506220005 91 63 4.0 0.0 0.00 0.00 0.00 48 1006.2
20260506215507 91 153 4.0 0.0 0.00 0.00 0.00 50 1006.2